Weather in Fominskoye

Russia / Kostroma Oblast     58°09′02″N   41°02′36″E
temp.,
°C
wind,
m/s
gust,
m/s
humid.,
%
clouds,
%
prec.,
mm/h
press.,
hPa
HPBL,
m
17 june, thu
thu1700:00+11nw2366100 0.0 101749
03:00+10wnw27684 0.0 1019139
06:00+13nw396463 0.0 1020309
09:00+18nw494111 0.0 10211271
12:00+21nw583735 0.0 10222272
15:00+21nw4743100 0.0 10222278
18:00+19nw146110 0.0 1023214
21:00+14ne11760 0.0 102411
18 june, fri
fri1800:00+12e11841 0.0 102510
03:00+10se118935 0.0 102711
06:00+14s23749 0.0 1027138
09:00+21ssw235212 0.0 1027634
12:00+24sw35395 0.0 10251724
15:00+26wsw453762 0.0 10241976
18:00+24wsw475295 0.0 1023914
21:00+18sw3107912 0.0 1023216
19 june, sat
sat1900:00+16sw2118251 0.0 1024235
03:00+15sw29885 0.0 1023194
06:00+18wsw39794 0.0 1023289
09:00+24w48551 0.0 1023803
12:00+28w58415 0.0 10221937
15:00+29w58380 0.0 10212131
18:00+27wnw48500 0.0 10201533
21:00+20wsw39804 0.0 1021176
20 june, sun
sun2000:00+18wsw210875 0.0 1021185
03:00+16wsw25945 0.0 102289
06:00+20wsw23805 0.0 1022159
09:00+25wsw34531 0.0 1022694
12:00+29w35380 0.0 10212053
15:00+30wsw35380 0.0 10202382
18:00+28wsw255596 0.0 1019495
21:00+23sw277562 0.0 1020184
21 june, mon
mon2100:00+19wsw22880 0.0 102033
03:00+18sw22880 0.0 102035
06:00+21sw25760 0.0 1020164
09:00+26sw34530 0.0 1020629
12:00+29wsw33421 0.0 10192014
15:00+31sw34374 0.0 10192415
18:00+28sw355211 0.0 1018635
21:00+22sw248423 0.0 101970